Back to catalog

STARLINK-31607

AliveCommunicationsVLEO
NORAD 59394·PAYLOAD·🇺🇸 United States

Launched Apr 2, 2024 from Vandenberg Space Force Base

Loading…

Next Passes (next 24 hours)

TLE

FreshSource: CelesTrak SupGP

Epoch: Sep 15, 2026, 03:12 UTC

1 59394C 24062W   26258.13381944 -.00011770  00000+0 -34777-3 0  2586
2 59394  53.1562  92.7888 0001248  86.9239  48.7613 15.34395352    18

Track STARLINK-31607 in real time with AllMySat

Download on the App Store